This demonstration page uses our WeatherBlox Daily Observations layout. Learn more.

Left ArrowRight Arrow

44.8408, -93.29828

Hourly Observations for May 26, 2015

Temp ( °F °C ) Dew Point ( °F °C ) Humidity (%) Winds ( mph kmh ) Pressure ( in mb ) Visibility ( mi km ) Precip ( " mm )
12:53 am 00:53 Mostly Cloudy 63 17.2 57 13.9 81 81 WSW 6 9 29.78 1008 10 16 0.00 0.00
1:53 am 01:53 Mostly Cloudy 62 16.7 57 13.9 84 84 Calm 29.78 1009 10 16 0.00 0.00
2:53 am 02:53 Mostly Cloudy 60 15.6 57 13.9 90 90 Calm 29.78 1009 10 16 0.00 0.00
3:53 am 03:53 Mostly Cloudy 60 15.6 57 13.9 90 90 WSW 3 6 29.78 1009 10 16 0.00 0.00
4:53 am 04:53 Mostly Cloudy 57 13.9 56 13.3 96 96 NW 3 6 29.77 1008 10 16 0.00 0.00
5:53 am 05:53 Mostly Cloudy 58 14.4 56 13.3 93 93 Calm 29.79 1009 8 13 0.00 0.00
6:53 am 06:53 Cloudy with Mist and Fog 58 14.4 56 13.3 93 93 NW 5 7 29.81 1009 5 8 0.00 0.00
7:04 am 07:04 Cloudy with Mist and Fog 58 14.4 57 13.9 97 97 NNW 5 7 29.80 1009 6 10 0.00 0.00
7:27 am 07:27 Cloudy with Mist and Fog 57 13.9 56 13.3 96 96 VRB 5 7 29.83 1010 2 3 0.00 0.00
7:53 am 07:53 Cloudy with Mist and Fog 57 13.9 56 13.3 96 96 NNW 6 9 29.81 1010 2 3 0.00 0.00
8:23 am 08:23 Cloudy with Mist and Fog 58 14.4 56 13.3 93 93 N 6 9 29.83 1010 2 3 0.00 0.00
8:43 am 08:43 Cloudy with Mist and Fog 58 14.4 56 13.3 93 93 N 6 9 29.83 1010 3 5 0.00 0.00
8:53 am 08:53 Cloudy with Mist and Fog 58 14.4 56 13.3 93 93 N 7 11 29.81 1010 3 5 0.00 0.00
9:01 am 09:01 Cloudy with Mist and Fog 58 14.4 56 13.3 93 93 VRB 7 11 29.83 1010 3 5 0.00 0.00
9:53 am 09:53 Cloudy with Mist and Fog 58 14.4 56 13.3 93 93 VRB 6 9 29.81 1009 6 10 0.00 0.03
10:53 am 10:53 Cloudy with Mist and Fog 57 13.9 56 13.3 96 96 N 8 13 29.79 1009 5 8 0.11 2.79
11:00 am 11:00 Cloudy with Light Rain 58 14.4 56 13.3 93 93 N 8 13 29.80 1009 5 8 0.00 0.03
11:32 am 11:32 Cloudy with Light Rain 57 13.9 55 12.8 93 93 N 9 15 29.80 1009 7 11 0.01 0.25
11:53 am 11:53 Cloudy with Light Rain 57 13.9 55 12.8 93 93 N 8 13 29.79 1009 8 13 0.01 0.25
12:53 pm 12:53 Cloudy with Light Rain 57 13.9 55 12.8 93 93 N 9 15 29.78 1009 7 11 0.01 0.25
1:53 pm 13:53 Cloudy with Light Rain 58 14.4 57 13.9 97 97 NNW 7 11 29.77 1008 5 8 0.06 1.52
2:10 pm 14:10 Cloudy with Light Rain 57 14 57 14 100 100 NNW 8 13 29.77 1008 7 11 0.00 0.00
2:53 pm 14:53 Cloudy with Light Rain 58 14.4 57 13.9 97 97 N 10 17 29.78 1008 8 13 0.07 1.78
3:30 pm 15:30 Cloudy with Light Rain 57 14 57 14 100 100 NNW 8 13 29.77 1008 5 8 0.00 0.00
3:43 pm 15:43 Cloudy with Rain 57 14 57 14 100 100 NNW 6 9 29.77 1008 5 8 0.00 0.00
3:53 pm 15:53 Cloudy with Rain 58 14.4 57 13.9 97 97 NNW 9 15 29.78 1008 5 8 0.12 3.05
4:30 pm 16:30 Cloudy with Light Rain 59 15 57 14 94 94 N 7 11 29.77 1008 7 11 0.00 0.00
4:53 pm 16:53 Cloudy with Light Rain 59 15 57 13.9 93 93 NNW 12 19 29.78 1008 7 11 0.12 3.05
5:11 pm 17:11 Cloudy with Light Rain 59 15 57 13.9 93 93 NNW 9 15 29.77 1008 7 11 0.01 0.25
5:24 pm 17:24 Cloudy with Light Rain 59 15 57 14 94 94 NNW 9 15 29.77 1008 7 11 0.00 0.00
5:53 pm 17:53 Cloudy with Light Rain 59 15 57 13.9 93 93 N 10 17 29.76 1008 9 14 0.03 0.76
6:53 pm 18:53 Cloudy with Light Rain 59 15 57 13.9 93 93 NNW 7 11 29.76 1008 9 14 0.04 1.02
7:53 pm 19:53 Cloudy with Light Rain 58 14.4 56 13.3 93 93 NNW 8 13 29.77 1008 8 13 0.01 0.25
8:53 pm 20:53 Cloudy 58 14.4 56 13.3 93 93 WNW 6 9 29.78 1009 10 16 0.01 0.25
9:28 pm 21:28 Cloudy 58 14.4 56 13.3 93 93 W 3 6 29.80 1009 10 16 0.00 0.00
9:53 pm 21:53 Cloudy 58 14.4 56 13.3 93 93 WSW 3 6 29.80 1009 10 16 0.00 0.00
10:53 pm 22:53 Cloudy 58 14.4 56 13.3 93 93 WSW 5 7 29.82 1010 10 16 0.00 0.00
11:53 pm 23:53 Cloudy 58 14.4 56 13.3 93 93 W 6 9 29.82 1010 8 13 0.00 0.00

Powered by AerisWeather